(332151) = 2005 YY70

Discovered at Catalina on 2005-12-22 by CSS.

Orbit

Orbit type: Hungaria

Note: WebGL enabled browser required.

epoch2023-09-13.0
epoch JD2460200.5
perihelion date2021-04-18.20594
perihelion JD2459322.70594
argument of perihelion (°)280.29994
ascending node (°)114.33371
inclination (°)23.41278
eccentricity0.1002298
perihelion distance (AU)1.7142826
Tisserand w.r.t. Jupiter3.8
ΔV w.r.t. Earth (km/sec)11.0
semimajor axis (AU)1.9052450
mean anomaly (°)328.98057
mean daily motion (°/day)0.37478100
aphelion distance (AU)2.096
period (years)2.63
P-vector [x]0.74899212
P-vector [y]0.64631594
P-vector [z]-0.14589894
Q-vector [x]-0.55491350
Q-vector [y]0.73221124
Q-vector [z]0.39488948
absolute magnitude17.81
phase slope0.15
uncertainty0
referenceMPEC 2023-X193
observations used171
oppositions12
arc length (days)7171
first opposition used2004
last opposition used2023
residual rms (arc-secs)0.82
perturbers coarse indicatorM-v
perturbers precise indicator003Ek
first observation date used2004-04-22.0
last observation date used2023-12-10.0
computer nameMPCLINUX
JD of orbit computation2456700.405185
perihelion JD uncertainty (days)9.8725E-05
argument of perihelion uncertainty (°)3.7048E-05
ascending node uncertainty (°)1.2028E-05
inclination uncertainty (°)6.0767E-06
eccentricity uncertainty 4.6242E-08
perihelion distance uncertainty (AU)9.0467E-08
Minimum Orbit Intersection Distances (in AU)
for orbit epoch: 2460200.5, reference: E2023-XJ3
Mercury1.39443
Venus1.06638
Earth0.82871
Mars0.23359
Jupiter3.2146
Saturn7.23669
Uranus16.53
Neptune28.2471

Observations

186 total observations over interval: 2004 04 22.442310 – 2023 12 10.251936
These data are available for download (format description).

Date (UT) J2000 RA J2000 Dec Magn Location Ref
2004 04 22.442310 16 35 16.432 +15 36 00.31 20.93 V 645 – Apache Point-Sloan Digital Sky Survey MPS 161875
2004 04 22.445782 16 35 16.289 +15 36 01.78 21.66   645 – Apache Point-Sloan Digital Sky Survey MPS 161875
2004 05 14.277330 16 14 06.897 +16 59 23.18 20.71 V 645 – Apache Point-Sloan Digital Sky Survey MPS 161875
2004 05 14.280802 16 14 06.628 +16 59 23.24 21.47   645 – Apache Point-Sloan Digital Sky Survey MPS 161875
2005 12 22.34542 08 35 20.58 +13 46 39.9 19.7 V 703 – Catalina Sky Survey MPS 156744
2005 12 22.35234 08 35 20.40 +13 46 49.1 19.7 V 703 – Catalina Sky Survey MPS 156744
2005 12 22.35925 08 35 20.25 +13 46 58.8 19.5 V 703 – Catalina Sky Survey MPS 156744
2005 12 22.36616 08 35 20.00 +13 47 05.2 19.4 V 703 – Catalina Sky Survey MPS 156744
2005 12 28.46347 08 31 30.76 +15 49 56.5 19.8 V 691 – Steward Observatory, Kitt Peak-Spacewatch MPS 156744
2005 12 28.48088 08 31 29.91 +15 50 18.6 19.9 V 691 – Steward Observatory, Kitt Peak-Spacewatch MPS 156744
2005 12 28.49829 08 31 29.07 +15 50 40.7 19.9 V 691 – Steward Observatory, Kitt Peak-Spacewatch MPS 156744
2006 01 04.40356 08 25 19.00 +18 25 30.9 19.9 V 691 – Steward Observatory, Kitt Peak-Spacewatch MPS 157885
2006 01 04.42094 08 25 17.86 +18 25 55.4 19.9 V 691 – Steward Observatory, Kitt Peak-Spacewatch MPS 157885
2006 01 04.43016 08 25 17.25 +18 26 07.7 19.7 V G96 – Mt. Lemmon Survey MPS 157885
2006 01 04.43755 08 25 16.78 +18 26 17.8 19.5 V G96 – Mt. Lemmon Survey MPS 157885
2006 01 04.43833 08 25 16.75 +18 26 19.2 19.8 V 691 – Steward Observatory, Kitt Peak-Spacewatch MPS 157885
2006 01 04.44492 08 25 16.32 +18 26 28.1 19.7 V G96 – Mt. Lemmon Survey MPS 157885
2006 01 04.45241 08 25 15.81 +18 26 38.6 19.6 V G96 – Mt. Lemmon Survey MPS 157885
2006 01 20.27526 08 05 56.83 +24 45 37.7 19.0 R 699 – Lowell Observatory-LONEOS MPS 159940
2006 01 20.30082 08 05 54.65 +24 46 14.1   699 – Lowell Observatory-LONEOS MPS 159940
2006 01 20.32639 08 05 52.60 +24 46 49.2   699 – Lowell Observatory-LONEOS MPS 159940
2006 01 20.35197 08 05 50.38 +24 47 25.2   699 – Lowell Observatory-LONEOS MPS 159940
2007 06 21.37854 20 53 54.42 -14 42 37.6 20.4 V G96 – Mt. Lemmon Survey MPS 211065
2007 06 21.38527 20 53 54.34 -14 42 43.7 20.3 V G96 – Mt. Lemmon Survey MPS 211065
2007 06 21.39201 20 53 54.27 -14 42 50.2 20.2 V G96 – Mt. Lemmon Survey MPS 211065
2007 06 21.40411 20 53 54.17 -14 43 01.2 19.9 V 691 – Steward Observatory, Kitt Peak-Spacewatch MPS 211065
2007 06 21.42177 20 53 54.06 -14 43 17.7 20.2 V 691 – Steward Observatory, Kitt Peak-Spacewatch MPS 211065
2007 06 21.43942 20 53 53.95 -14 43 34.1 20.7 V 691 – Steward Observatory, Kitt Peak-Spacewatch MPS 211065
2007 06 26.40452 20 53 05.10 -16 05 47.2   691 – Steward Observatory, Kitt Peak-Spacewatch MPS 211383
2007 06 26.42214 20 53 04.80 -16 06 05.0   691 – Steward Observatory, Kitt Peak-Spacewatch MPS 211383
2007 06 26.43977 20 53 04.44 -16 06 24.4   691 – Steward Observatory, Kitt Peak-Spacewatch MPS 211383
2010 11 03.33942 04 22 47.06 -25 01 46.3 20.6 V 703 – Catalina Sky Survey MPS 353798
2010 11 03.34510 04 22 46.74 -25 01 48.3 19.6 V 703 – Catalina Sky Survey MPS 353798
2010 11 03.35090 04 22 46.23 -25 01 46.5 19.8 V 703 – Catalina Sky Survey MPS 353798
2010 11 03.35670 04 22 46.02 -25 01 48.7 20.4 V 703 – Catalina Sky Survey MPS 353798
2012 05 26.33718 17 24 42.04 +07 12 26.6 20.4 V G96 – Mt. Lemmon Survey MPS 426000
2012 05 26.34409 17 24 41.54 +07 12 25.0 20.0 V G96 – Mt. Lemmon Survey MPS 426000
2012 05 26.35104 17 24 41.04 +07 12 23.4 20.4 V G96 – Mt. Lemmon Survey MPS 426000
2012 05 26.35799 17 24 40.53 +07 12 22.2 20.4 V G96 – Mt. Lemmon Survey MPS 426000
2012 06 12.32111 17 03 05.40 +05 10 38.8   691 – Steward Observatory, Kitt Peak-Spacewatch MPS 426490
2012 06 12.33884 17 03 03.96 +05 10 27.3   691 – Steward Observatory, Kitt Peak-Spacewatch MPS 426490
2012 06 12.35658 17 03 02.52 +05 10 15.8   691 – Steward Observatory, Kitt Peak-Spacewatch MPS 426490
2012 06 15.39292 16 59 03.761 +04 36 04.24 20.3 w F51 – Pan-STARRS 1, Haleakala MPS 426490
2012 06 15.40656 16 59 02.651 +04 35 54.62 20.3 w F51 – Pan-STARRS 1, Haleakala MPS 426490
2012 06 15.43383 16 59 00.440 +04 35 35.14 20.2 w F51 – Pan-STARRS 1, Haleakala MPS 426490
2014 01 28.40317 10 13 30.40 +30 15 10.8 19.6 V 703 – Catalina Sky Survey MPS 500110
2014 01 28.41111 10 13 29.94 +30 15 23.2 20.0 V 703 – Catalina Sky Survey MPS 500110
2014 01 28.41899 10 13 29.54 +30 15 35.1 20.4 V 703 – Catalina Sky Survey MPS 500110
2014 01 28.42684 10 13 29.07 +30 15 48.0 19.7 V 703 – Catalina Sky Survey MPS 500110
2014 02 06.28831 10 04 41.31 +33 43 38.1 19.5 V 703 – Catalina Sky Survey MPS 500913
2014 02 06.29333 10 04 41.01 +33 43 45.7 19.7 V 703 – Catalina Sky Survey MPS 500913
2014 02 06.29835 10 04 40.62 +33 43 51.9 20.0 V 703 – Catalina Sky Survey MPS 500913
2014 02 06.30336 10 04 40.17 +33 43 57.3 19.6 V 703 – Catalina Sky Survey MPS 500913
2015 07 14.40927 22 54 34.87 -23 00 41.4 20.6 r G45 – Space Surveillance Telescope, Atom Site MPS 615845
2015 07 14.40934 22 54 34.89 -23 00 42.4 20.8 r G45 – Space Surveillance Telescope, Atom Site MPS 615845
2015 07 14.41460 22 54 35.01 -23 00 48.5 20.4 r G45 – Space Surveillance Telescope, Atom Site MPS 615845
2015 07 14.41466 22 54 35.03 -23 00 49.1 20.3 r G45 – Space Surveillance Telescope, Atom Site MPS 615845
2015 07 14.41999 22 54 35.19 -23 00 56.0 20.5 r G45 – Space Surveillance Telescope, Atom Site MPS 615845
2015 07 14.42541 22 54 35.33 -23 01 03.2 19.8 r G45 – Space Surveillance Telescope, Atom Site MPS 615845
2015 07 14.42548 22 54 35.41 -23 01 02.7 19.9 r G45 – Space Surveillance Telescope, Atom Site MPS 615845
2015 07 14.43101 22 54 35.63 -23 01 09.0 20.2 r G45 – Space Surveillance Telescope, Atom Site MPS 615845
2015 07 14.43108 22 54 35.55 -23 01 10.4 20.7 r G45 – Space Surveillance Telescope, Atom Site MPS 615845
2017 03 18.50725 15 12 26.79 +22 06 30.9 21.1 V G96 – Mt. Lemmon Survey MPS 781527
2017 03 18.51398 15 12 26.73 +22 06 36.3 21.2 V G96 – Mt. Lemmon Survey MPS 781527
2017 03 18.52728 15 12 26.61 +22 06 47.6 20.9 V G96 – Mt. Lemmon Survey MPS 781527
2017 04 03.44001 15 05 49.97 +25 41 25.4 20.5 V G96 – Mt. Lemmon Survey MPS 789728
2017 04 03.44426 15 05 49.75 +25 41 28.1 20.3 V G96 – Mt. Lemmon Survey MPS 789728
2017 04 03.44853 15 05 49.57 +25 41 31.3 20.7 V G96 – Mt. Lemmon Survey MPS 789728
2017 04 03.45279 15 05 49.39 +25 41 34.3 20.3 V G96 – Mt. Lemmon Survey MPS 789728
2017 04 08.33610 15 01 55.76 +26 36 18.6 20.6 V G96 – Mt. Lemmon Survey MPS 789728
2017 04 08.34038 15 01 55.49 +26 36 21.7 21.1 V G96 – Mt. Lemmon Survey MPS 789728
2017 04 08.34560 15 01 55.20 +26 36 25.1 21.0 V G96 – Mt. Lemmon Survey MPS 789728
2017 04 08.34984 15 01 54.97 +26 36 27.5 20.6 V G96 – Mt. Lemmon Survey MPS 789728
2017 04 18.72748 14 51 20.75 +28 03 23.5 20.2 R D29 – Purple Mountain Observatory, XuYi Station MPS 792687
2017 04 18.76194 14 51 18.24 +28 03 35.4 21.6 R D29 – Purple Mountain Observatory, XuYi Station MPS 792687
2017 04 19.42924 14 50 32.44 +28 07 34.6 20.5 V G96 – Mt. Lemmon Survey MPS 792687
2017 04 19.43798 14 50 31.84 +28 07 37.3 20.4 V G96 – Mt. Lemmon Survey MPS 792687
2017 04 19.44221 14 50 31.51 +28 07 38.9 20.6 V G96 – Mt. Lemmon Survey MPS 792687
2017 04 19.44920 14 50 31.01 +28 07 41.2 20.8 V G96 – Mt. Lemmon Survey MPS 792687
2017 05 20.28628 14 15 13.37 +27 01 27.9 21.4 V G96 – Mt. Lemmon Survey MPS 799221
2017 05 20.29042 14 15 13.08 +27 01 26.0 21.4 V G96 – Mt. Lemmon Survey MPS 799221
2017 05 20.29460 14 15 12.84 +27 01 24.0 21.4 V G96 – Mt. Lemmon Survey MPS 799221
2017 05 20.29875 14 15 12.59 +27 01 21.1 20.9 V G96 – Mt. Lemmon Survey MPS 799221
2017 05 24.42222 14 11 44.048 +26 18 05.80 20.9 w F51 – Pan-STARRS 1, Haleakala MPS 799221
2017 05 24.43384 14 11 43.474 +26 17 57.91 21.1 w F51 – Pan-STARRS 1, Haleakala MPS 799221
2017 05 24.44543 14 11 42.910 +26 17 50.00 20.9 w F51 – Pan-STARRS 1, Haleakala MPS 799221
2017 05 24.45702 14 11 42.337 +26 17 41.85 21.0 w F51 – Pan-STARRS 1, Haleakala MPS 799221
2017 05 30.38221 14 07 38.548 +25 04 31.87 21.0 w F51 – Pan-STARRS 1, Haleakala MPS 800542
2017 05 30.40942 14 07 37.510 +25 04 10.03 21.0 w F51 – Pan-STARRS 1, Haleakala MPS 800542
